Flag for Germany Past Weather in Neustadt am Rübenberge, Lower Saxony, Germany — Yesterday and Last 2 Weeks

Now
66 °F

Broken clouds.


Feels Like: 66 °F
Forecast: 53 / 69 °F
Wind: 6 mph from Northwest

Location: Wunstorf Airport

Current Time: Sep 26, 2016 at 5:52:59 PM

Latest Report: Sep 26, 2016 at 5:20 PM


Visibility: N/A

Pressure: 30.18 "Hg

Humidity: 64%

Dew Point: 54 °F

Location of Neustadt am RübenbergeLocation

Past Weather in Neustadt am Rübenberge — Graph

°F

Neustadt am Rübenberge Temperature Yesterday

Maximum temperature yesterday: 77 °F (at 4:20 PM)
Minimum temperature yesterday: 48 °F (at 4:20 AM)
Average temperature yesterday: 63 °F

High & Low Weather Summary for the Past Weeks

 TemperatureHumidityPressure
High90 °F (Sep 13, 2:20 PM)100% (Sep 22, 3:20 AM)30.27 "Hg (Sep 22, 3:20 AM)
Low45 °F (Sep 24, 7:20 AM)31% (Sep 14, 4:20 PM)29.86 "Hg (Sep 15, 5:20 PM)
Average64 °F67%30.06 "Hg
* Reported Sep 11 3:20 PM — Sep 26 3:20 PM, Neustadt am Rübenberge, Weather by CustomWeather, © 2016

Note: Actual official high and low records may vary slightly from our data, if they occured in-between our weather recording intervals... More about our weather records

Advertising

Neustadt am Rübenberge Weather History for the Previous 24 Hours

Scroll right to see more
 ConditionsComfort  
Time TempWeatherWind HumidityBarometerVisibility
3:20 PM
Mon, Sep 26
66 °FBroken clouds.3 mph64%30.21 "HgN/A
2:20 PM68 °FBroken clouds.8 mph60%30.21 "HgN/A
1:20 PM66 °FPartly sunny.7 mph68%30.21 "HgN/A
12:20 PM63 °FBroken clouds.6 mph77%30.21 "HgN/A
11:20 AM61 °FBroken clouds.7 mph77%30.21 "HgN/A
10:20 AM59 °FBroken clouds.7 mph82%30.21 "HgN/A
9:20 AM59 °FLight rain. Broken clouds.5 mph82%30.18 "HgN/A
8:20 AM59 °FLight rain. Partly sunny.5 mph82%30.18 "HgN/A
7:20 AM59 °FPartly sunny.8 mph82%30.18 "HgN/A
6:20 AM59 °FPartly cloudy.8 mph82%30.15 "HgN/A
5:20 AM59 °FPassing clouds.9 mph82%30.15 "HgN/A
4:20 AM61 °FCool.10 mph83%30.15 "Hg4 mi
3:20 AM63 °FMild.7 mph77%30.15 "Hg4 mi
2:20 AM61 °FCool.7 mph83%30.12 "Hg4 mi
1:20 AM61 °FCool.8 mph83%30.12 "Hg4 mi
12:20 AM63 °FMild.9 mph77%30.09 "Hg4 mi
11:20 PM
Sun, Sep 25
63 °FMild.13 mph68%30.07 "Hg5 mi
10:20 PM63 °FMild.3 mph64%30.04 "Hg5 mi
9:20 PM64 °FMild.6 mph60%30.04 "Hg4 mi
8:20 PM66 °FMild.6 mph56%30.04 "Hg4 mi
7:20 PM68 °FMild.7 mph53%30.04 "Hg5 mi
6:20 PM73 °FMild.8 mph44%30.01 "Hg5 mi
5:20 PM77 °FPleasantly warm.10 mph39%30.01 "Hg4 mi
Weather by CustomWeather, © 2016

See weather overviewHow to use our weather pages